owner,sensor,date,latitude,longitude,air_temperature,qcFlag 
DISL,ioos:station:DISL:KATA:1,2011-10-01T00:00:00Z,30.2583,-88.2131,25.55,1111122 
DISL,ioos:station:DISL:KATA:1,2011-10-01T00:30:00Z,30.2583,-88.2131,25.11,1111122 
DISL,ioos:station:DISL:KATA:1,2011-10-01T01:00:00Z,30.2583,-88.2131,24.44,1111122 
DISL,ioos:station:DISL:KATA:1,2011-10-01T01:30:00Z,30.2583,-88.2131,24.01,1111122 
DISL,ioos:station:DISL:KATA:1,2011-10-01T02:00:00Z,30.2583,-88.2131,23.43,1111122 
DISL,ioos:station:DISL:KATA:1,2011-10-01T02:30:00Z,30.2583,-88.2131,22.79,1111122 
DISL,ioos:station:DISL:KATA:1,2011-10-01T03:00:00Z,30.2583,-88.2131,22.42,1111122 
DISL,ioos:station:DISL:KATA:1,2011-10-01T03:30:00Z,30.2583,-88.2131,22.08,1111122 
DISL,ioos:station:DISL:KATA:1,2011-10-01T04:00:00Z,30.2583,-88.2131,21.85,1111122 
DISL,ioos:station:DISL:KATA:1,2011-10-01T04:30:00Z,30.2583,-88.2131,21.58,1111122 
DISL,ioos:station:DISL:KATA:1,2011-10-01T05:00:00Z,30.2583,-88.2131,21.04,1111122 
DISL,ioos:station:DISL:KATA:1,2011-10-01T05:30:00Z,30.2583,-88.2131,20.98,1111122 
DISL,ioos:station:DISL:KATA:1,2011-10-01T06:00:00Z,30.2583,-88.2131,20.71,1111122 
DISL,ioos:station:DISL:KATA:1,2011-10-01T06:30:00Z,30.2583,-88.2131,20.4,1111122 
DISL,ioos:station:DISL:KATA:1,2011-10-01T07:00:00Z,30.2583,-88.2131,20.31,1111122 
DISL,ioos:station:DISL:KATA:1,2011-10-01T07:30:00Z,30.2583,-88.2131,19.94,1111122 
DISL,ioos:station:DISL:KATA:1,2011-10-01T08:00:00Z,30.2583,-88.2131,19.39,1111122 
DISL,ioos:station:DISL:KATA:1,2011-10-01T08:30:00Z,30.2583,-88.2131,18.99,1111122 
DISL,ioos:station:DISL:KATA:1,2011-10-01T09:00:00Z,30.2583,-88.2131,18.37,1111122 
DISL,ioos:station:DISL:KATA:1,2011-10-01T09:30:00Z,30.2583,-88.2131,18.28,1111122 
DISL,ioos:station:DISL:KATA:1,2011-10-01T10:00:00Z,30.2583,-88.2131,18.18,1111122 
DISL,ioos:station:DISL:KATA:1,2011-10-01T10:30:00Z,30.2583,-88.2131,18.21,1111122 
DISL,ioos:station:DISL:KATA:1,2011-10-01T11:00:00Z,30.2583,-88.2131,17.98,1111122 
DISL,ioos:station:DISL:KATA:1,2011-10-01T11:30:00Z,30.2583,-88.2131,17.77,1111122 
DISL,ioos:station:DISL:KATA:1,2011-10-01T12:00:00Z,30.2583,-88.2131,17.67,1111122 
DISL,ioos:station:DISL:KATA:1,2011-10-01T12:30:00Z,30.2583,-88.2131,17.67,1111122 
DISL,ioos:station:DISL:KATA:1,2011-10-01T13:00:00Z,30.2583,-88.2131,17.88,1111122 
DISL,ioos:station:DISL:KATA:1,2011-10-01T13:30:00Z,30.2583,-88.2131,18.14,1111122 
DISL,ioos:station:DISL:KATA:1,2011-10-01T14:00:00Z,30.2583,-88.2131,18.51,1111122 
DISL,ioos:station:DISL:KATA:1,2011-10-01T14:30:00Z,30.2583,-88.2131,19.77,1111122 
DISL,ioos:station:DISL:KATA:1,2011-10-01T15:00:00Z,30.2583,-88.2131,20.47,1111122 
DISL,ioos:station:DISL:KATA:1,2011-10-01T15:30:00Z,30.2583,-88.2131,20.77,1111122 
DISL,ioos:station:DISL:KATA:1,2011-10-01T16:00:00Z,30.2583,-88.2131,20.83,1111122 
DISL,ioos:station:DISL:KATA:1,2011-10-01T16:30:00Z,30.2583,-88.2131,21.17,1111122 
DISL,ioos:station:DISL:KATA:1,2011-10-01T17:00:00Z,30.2583,-88.2131,21.7,1111122 
DISL,ioos:station:DISL:KATA:1,2011-10-01T17:30:00Z,30.2583,-88.2131,22.28,1111122 
DISL,ioos:station:DISL:KATA:1,2011-10-01T18:00:00Z,30.2583,-88.2131,22.86,1111122 
DISL,ioos:station:DISL:KATA:1,2011-10-01T18:30:00Z,30.2583,-88.2131,22.96,1111122 
DISL,ioos:station:DISL:KATA:1,2011-10-01T19:00:00Z,30.2583,-88.2131,23.06,1111122 
DISL,ioos:station:DISL:KATA:1,2011-10-01T19:30:00Z,30.2583,-88.2131,23.33,1111122 
DISL,ioos:station:DISL:KATA:1,2011-10-01T20:00:00Z,30.2583,-88.2131,23.37,1111122 
DISL,ioos:station:DISL:KATA:1,2011-10-01T20:30:00Z,30.2583,-88.2131,23.64,1111122 
DISL,ioos:station:DISL:KATA:1,2011-10-01T21:00:00Z,30.2583,-88.2131,23.87,1111122 
DISL,ioos:station:DISL:KATA:1,2011-10-01T21:30:00Z,30.2583,-88.2131,23.98,1111122 
DISL,ioos:station:DISL:KATA:1,2011-10-01T22:00:00Z,30.2583,-88.2131,24.03,1111122 
DISL,ioos:station:DISL:KATA:1,2011-10-01T22:30:00Z,30.2583,-88.2131,24.07,1111122 
DISL,ioos:station:DISL:KATA:1,2011-10-01T23:00:00Z,30.2583,-88.2131,23.96,1111122 
DISL,ioos:station:DISL:KATA:1,2011-10-01T23:30:00Z,30.2583,-88.2131,23.7,1111122 
DISL,ioos:station:DISL:KATA:1,2011-10-02T00:00:00Z,30.2583,-88.2131,23.36,1111122 
DISL,ioos:station:DISL:KATA:1,2011-10-02T00:30:00Z,30.2583,-88.2131,22.75,1111122 
DISL,ioos:station:DISL:KATA:1,2011-10-02T01:00:00Z,30.2583,-88.2131,22.04,1111122 
DISL,ioos:station:DISL:KATA:1,2011-10-02T01:30:00Z,30.2583,-88.2131,21.85,1111122 
DISL,ioos:station:DISL:KATA:1,2011-10-02T02:00:00Z,30.2583,-88.2131,21.38,1111122 
DISL,ioos:station:DISL:KATA:1,2011-10-02T02:30:00Z,30.2583,-88.2131,21.01,1111122 
DISL,ioos:station:DISL:KATA:1,2011-10-02T03:00:00Z,30.2583,-88.2131,20.13,1111122 
DISL,ioos:station:DISL:KATA:1,2011-10-02T03:30:00Z,30.2583,-88.2131,19.63,1111122 
DISL,ioos:station:DISL:KATA:1,2011-10-02T04:00:00Z,30.2583,-88.2131,19.32,1111122 
DISL,ioos:station:DISL:KATA:1,2011-10-02T04:30:00Z,30.2583,-88.2131,19.05,1111122 
DISL,ioos:station:DISL:KATA:1,2011-10-02T05:00:00Z,30.2583,-88.2131,18.61,1111122 
DISL,ioos:station:DISL:KATA:1,2011-10-02T05:30:00Z,30.2583,-88.2131,18.38,1111122 
DISL,ioos:station:DISL:KATA:1,2011-10-02T06:00:00Z,30.2583,-88.2131,17.98,1111122 
DISL,ioos:station:DISL:KATA:1,2011-10-02T06:30:00Z,30.2583,-88.2131,17.84,1111122 
DISL,ioos:station:DISL:KATA:1,2011-10-02T07:00:00Z,30.2583,-88.2131,17.37,1111122 
DISL,ioos:station:DISL:KATA:1,2011-10-02T07:30:00Z,30.2583,-88.2131,17.37,1111122 
DISL,ioos:station:DISL:KATA:1,2011-10-02T08:00:00Z,30.2583,-88.2131,16.96,1111122 
DISL,ioos:station:DISL:KATA:1,2011-10-02T08:30:00Z,30.2583,-88.2131,16.96,1111122 
DISL,ioos:station:DISL:KATA:1,2011-10-02T09:00:00Z,30.2583,-88.2131,16.72,1111122 
DISL,ioos:station:DISL:KATA:1,2011-10-02T09:30:00Z,30.2583,-88.2131,16.65,1111122 
DISL,ioos:station:DISL:KATA:1,2011-10-02T10:00:00Z,30.2583,-88.2131,16.55,1111122 
DISL,ioos:station:DISL:KATA:1,2011-10-02T10:30:00Z,30.2583,-88.2131,16.08,1111122 
DISL,ioos:station:DISL:KATA:1,2011-10-02T11:00:00Z,30.2583,-88.2131,15.74,1111122 
DISL,ioos:station:DISL:KATA:1,2011-10-02T11:30:00Z,30.2583,-88.2131,15.52,1111122 
DISL,ioos:station:DISL:KATA:1,2011-10-02T12:00:00Z,30.2583,-88.2131,15.38,1111122 
DISL,ioos:station:DISL:KATA:1,2011-10-02T12:30:00Z,30.2583,-88.2131,16.37,1111122 
DISL,ioos:station:DISL:KATA:1,2011-10-02T13:00:00Z,30.2583,-88.2131,16.86,1111122 
DISL,ioos:station:DISL:KATA:1,2011-10-02T13:30:00Z,30.2583,-88.2131,17.0,1111122 
DISL,ioos:station:DISL:KATA:1,2011-10-02T14:00:00Z,30.2583,-88.2131,16.89,1111122 
DISL,ioos:station:DISL:KATA:1,2011-10-02T14:30:00Z,30.2583,-88.2131,16.89,1111122 
DISL,ioos:station:DISL:KATA:1,2011-10-02T15:00:00Z,30.2583,-88.2131,16.89,1111122 
DISL,ioos:station:DISL:KATA:1,2011-10-02T15:30:00Z,30.2583,-88.2131,17.06,1111122 
DISL,ioos:station:DISL:KATA:1,2011-10-02T16:00:00Z,30.2583,-88.2131,17.13,1111122 
DISL,ioos:station:DISL:KATA:1,2011-10-02T16:30:00Z,30.2583,-88.2131,17.7,1111122 
DISL,ioos:station:DISL:KATA:1,2011-10-02T17:00:00Z,30.2583,-88.2131,18.2,1111122 
DISL,ioos:station:DISL:KATA:1,2011-10-02T17:30:00Z,30.2583,-88.2131,18.61,1111122 
DISL,ioos:station:DISL:KATA:1,2011-10-02T18:00:00Z,30.2583,-88.2131,19.09,1111122 
DISL,ioos:station:DISL:KATA:1,2011-10-02T18:30:00Z,30.2583,-88.2131,19.73,1111122 
DISL,ioos:station:DISL:KATA:1,2011-10-02T19:00:00Z,30.2583,-88.2131,19.56,1111122 
DISL,ioos:station:DISL:KATA:1,2011-10-02T19:30:00Z,30.2583,-88.2131,19.79,1111122 
DISL,ioos:station:DISL:KATA:1,2011-10-02T20:00:00Z,30.2583,-88.2131,20.3,1111122 
DISL,ioos:station:DISL:KATA:1,2011-10-02T20:30:00Z,30.2583,-88.2131,19.82,1111122 
DISL,ioos:station:DISL:KATA:1,2011-10-02T21:00:00Z,30.2583,-88.2131,20.39,1111122 
DISL,ioos:station:DISL:KATA:1,2011-10-02T21:30:00Z,30.2583,-88.2131,20.12,1111122 
DISL,ioos:station:DISL:KATA:1,2011-10-02T22:00:00Z,30.2583,-88.2131,20.36,1111122 
DISL,ioos:station:DISL:KATA:1,2011-10-02T22:30:00Z,30.2583,-88.2131,20.25,1111122 
DISL,ioos:station:DISL:KATA:1,2011-10-02T23:00:00Z,30.2583,-88.2131,20.63,1111122 
DISL,ioos:station:DISL:KATA:1,2011-10-02T23:30:00Z,30.2583,-88.2131,20.6,1111122 
DISL,ioos:station:DISL:KATA:1,2011-10-03T00:00:00Z,30.2583,-88.2131,21.59,1111122 
DISL,ioos:station:DISL:KATA:1,2011-10-03T00:30:00Z,30.2583,-88.2131,21.38,1111122 
DISL,ioos:station:DISL:KATA:1,2011-10-03T01:00:00Z,30.2583,-88.2131,21.32,1111122 
DISL,ioos:station:DISL:KATA:1,2011-10-03T01:30:00Z,30.2583,-88.2131,21.05,1111122 
DISL,ioos:station:DISL:KATA:1,2011-10-03T02:00:00Z,30.2583,-88.2131,20.81,1111122 
DISL,ioos:station:DISL:KATA:1,2011-10-03T02:30:00Z,30.2583,-88.2131,20.51,1111122 
DISL,ioos:station:DISL:KATA:1,2011-10-03T03:00:00Z,30.2583,-88.2131,20.07,1111122 
DISL,ioos:station:DISL:KATA:1,2011-10-03T03:30:00Z,30.2583,-88.2131,19.73,1111122 
DISL,ioos:station:DISL:KATA:1,2011-10-03T04:00:00Z,30.2583,-88.2131,19.53,1111122 
DISL,ioos:station:DISL:KATA:1,2011-10-03T04:30:00Z,30.2583,-88.2131,19.02,1111122 
DISL,ioos:station:DISL:KATA:1,2011-10-03T05:00:00Z,30.2583,-88.2131,18.48,1111122 
DISL,ioos:station:DISL:KATA:1,2011-10-03T05:30:00Z,30.2583,-88.2131,18.21,1111122 
DISL,ioos:station:DISL:KATA:1,2011-10-03T06:00:00Z,30.2583,-88.2131,18.35,1111122 
DISL,ioos:station:DISL:KATA:1,2011-10-03T06:30:00Z,30.2583,-88.2131,18.55,1111122 
DISL,ioos:station:DISL:KATA:1,2011-10-03T07:00:00Z,30.2583,-88.2131,18.01,1111122 
DISL,ioos:station:DISL:KATA:1,2011-10-03T07:30:00Z,30.2583,-88.2131,17.6,1111122 
DISL,ioos:station:DISL:KATA:1,2011-10-03T08:00:00Z,30.2583,-88.2131,17.37,1111122 
DISL,ioos:station:DISL:KATA:1,2011-10-03T08:30:00Z,30.2583,-88.2131,17.2,1111122 
DISL,ioos:station:DISL:KATA:1,2011-10-03T09:00:00Z,30.2583,-88.2131,16.99,1111122 
DISL,ioos:station:DISL:KATA:1,2011-10-03T09:30:00Z,30.2583,-88.2131,16.93,1111122 
DISL,ioos:station:DISL:KATA:1,2011-10-03T10:00:00Z,30.2583,-88.2131,16.86,1111122 
DISL,ioos:station:DISL:KATA:1,2011-10-03T10:30:00Z,30.2583,-88.2131,17.03,1111122 
DISL,ioos:station:DISL:KATA:1,2011-10-03T11:00:00Z,30.2583,-88.2131,16.72,1111122 
DISL,ioos:station:DISL:KATA:1,2011-10-03T11:30:00Z,30.2583,-88.2131,17.67,1111122 
DISL,ioos:station:DISL:KATA:1,2011-10-03T12:00:00Z,30.2583,-88.2131,18.59,1111122 
DISL,ioos:station:DISL:KATA:1,2011-10-03T12:30:00Z,30.2583,-88.2131,18.79,1111122 
DISL,ioos:station:DISL:KATA:1,2011-10-03T13:00:00Z,30.2583,-88.2131,19.2,1111122 
DISL,ioos:station:DISL:KATA:1,2011-10-03T13:30:00Z,30.2583,-88.2131,19.16,1111122 
DISL,ioos:station:DISL:KATA:1,2011-10-03T14:00:00Z,30.2583,-88.2131,18.92,1111122 
DISL,ioos:station:DISL:KATA:1,2011-10-03T14:30:00Z,30.2583,-88.2131,18.88,1111122 
DISL,ioos:station:DISL:KATA:1,2011-10-03T15:00:00Z,30.2583,-88.2131,19.02,1111122 
DISL,ioos:station:DISL:KATA:1,2011-10-03T15:30:00Z,30.2583,-88.2131,19.29,1111122 
DISL,ioos:station:DISL:KATA:1,2011-10-03T16:00:00Z,30.2583,-88.2131,19.9,1111122 
DISL,ioos:station:DISL:KATA:1,2011-10-03T16:30:00Z,30.2583,-88.2131,20.1,1111122 
DISL,ioos:station:DISL:KATA:1,2011-10-03T17:00:00Z,30.2583,-88.2131,20.3,1111122 
DISL,ioos:station:DISL:KATA:1,2011-10-03T17:30:00Z,30.2583,-88.2131,20.36,1111122 
DISL,ioos:station:DISL:KATA:1,2011-10-03T18:00:00Z,30.2583,-88.2131,20.52,1111122 
DISL,ioos:station:DISL:KATA:1,2011-10-03T18:30:00Z,30.2583,-88.2131,21.1,1111122 
DISL,ioos:station:DISL:KATA:1,2011-10-03T19:00:00Z,30.2583,-88.2131,20.66,1111122 
DISL,ioos:station:DISL:KATA:1,2011-10-03T19:30:00Z,30.2583,-88.2131,20.87,1111122 
DISL,ioos:station:DISL:KATA:1,2011-10-03T20:00:00Z,30.2583,-88.2131,20.77,1111122 
DISL,ioos:station:DISL:KATA:1,2011-10-03T20:30:00Z,30.2583,-88.2131,20.97,1111122 
DISL,ioos:station:DISL:KATA:1,2011-10-03T21:00:00Z,30.2583,-88.2131,23.21,1111122 
DISL,ioos:station:DISL:KATA:1,2011-10-03T21:30:00Z,30.2583,-88.2131,23.0,1111122 
DISL,ioos:station:DISL:KATA:1,2011-10-03T22:00:00Z,30.2583,-88.2131,24.04,1111122 
DISL,ioos:station:DISL:KATA:1,2011-10-03T22:30:00Z,30.2583,-88.2131,22.45,1111122 
DISL,ioos:station:DISL:KATA:1,2011-10-03T23:00:00Z,30.2583,-88.2131,22.45,1111122 
DISL,ioos:station:DISL:KATA:1,2011-10-03T23:30:00Z,30.2583,-88.2131,22.31,1111122 
DISL,ioos:station:DISL:KATA:1,2011-10-04T00:00:00Z,30.2583,-88.2131,22.01,1111122 
DISL,ioos:station:DISL:KATA:1,2011-10-04T00:30:00Z,30.2583,-88.2131,22.03,1111122 
DISL,ioos:station:DISL:KATA:1,2011-10-04T01:00:00Z,30.2583,-88.2131,21.83,1111122 
DISL,ioos:station:DISL:KATA:1,2011-10-04T01:30:00Z,30.2583,-88.2131,21.83,1111122 
DISL,ioos:station:DISL:KATA:1,2011-10-04T02:00:00Z,30.2583,-88.2131,21.52,1111122 
DISL,ioos:station:DISL:KATA:1,2011-10-04T02:30:00Z,30.2583,-88.2131,21.28,1111122 
DISL,ioos:station:DISL:KATA:1,2011-10-04T03:00:00Z,30.2583,-88.2131,21.15,1111122 
DISL,ioos:station:DISL:KATA:1,2011-10-04T03:30:00Z,30.2583,-88.2131,21.08,1111122 
DISL,ioos:station:DISL:KATA:1,2011-10-04T04:00:00Z,30.2583,-88.2131,21.05,1111122 
DISL,ioos:station:DISL:KATA:1,2011-10-04T04:30:00Z,30.2583,-88.2131,20.44,1111122 
DISL,ioos:station:DISL:KATA:1,2011-10-04T05:00:00Z,30.2583,-88.2131,20.51,1111122 
DISL,ioos:station:DISL:KATA:1,2011-10-04T05:30:00Z,30.2583,-88.2131,20.07,1111122 
DISL,ioos:station:DISL:KATA:1,2011-10-04T06:00:00Z,30.2583,-88.2131,20.21,1111122 
DISL,ioos:station:DISL:KATA:1,2011-10-04T06:30:00Z,30.2583,-88.2131,19.56,1111122 
DISL,ioos:station:DISL:KATA:1,2011-10-04T07:00:00Z,30.2583,-88.2131,19.32,1111122 
DISL,ioos:station:DISL:KATA:1,2011-10-04T07:30:00Z,30.2583,-88.2131,18.95,1111122 
DISL,ioos:station:DISL:KATA:1,2011-10-04T08:00:00Z,30.2583,-88.2131,18.72,1111122 
DISL,ioos:station:DISL:KATA:1,2011-10-04T08:30:00Z,30.2583,-88.2131,18.25,1111122 
DISL,ioos:station:DISL:KATA:1,2011-10-04T09:00:00Z,30.2583,-88.2131,18.18,1111122 
DISL,ioos:station:DISL:KATA:1,2011-10-04T09:30:00Z,30.2583,-88.2131,17.74,1111122 
DISL,ioos:station:DISL:KATA:1,2011-10-04T10:00:00Z,30.2583,-88.2131,17.6,1111122 
DISL,ioos:station:DISL:KATA:1,2011-10-04T10:30:00Z,30.2583,-88.2131,17.57,1111122 
DISL,ioos:station:DISL:KATA:1,2011-10-04T11:00:00Z,30.2583,-88.2131,17.33,1111122 
DISL,ioos:station:DISL:KATA:1,2011-10-04T11:30:00Z,30.2583,-88.2131,17.5,1111122 
DISL,ioos:station:DISL:KATA:1,2011-10-04T12:00:00Z,30.2583,-88.2131,17.67,1111122 
DISL,ioos:station:DISL:KATA:1,2011-10-04T12:30:00Z,30.2583,-88.2131,17.47,1111122 
DISL,ioos:station:DISL:KATA:1,2011-10-04T13:00:00Z,30.2583,-88.2131,17.98,1111122 
DISL,ioos:station:DISL:KATA:1,2011-10-04T13:30:00Z,30.2583,-88.2131,19.26,1111122 
DISL,ioos:station:DISL:KATA:1,2011-10-04T14:00:00Z,30.2583,-88.2131,20.85,1111122 
DISL,ioos:station:DISL:KATA:1,2011-10-04T14:30:00Z,30.2583,-88.2131,21.32,1111122 
DISL,ioos:station:DISL:KATA:1,2011-10-04T15:00:00Z,30.2583,-88.2131,21.27,1111122 
DISL,ioos:station:DISL:KATA:1,2011-10-04T15:30:00Z,30.2583,-88.2131,21.54,1111122 
DISL,ioos:station:DISL:KATA:1,2011-10-04T16:00:00Z,30.2583,-88.2131,21.77,1111122 
DISL,ioos:station:DISL:KATA:1,2011-10-04T16:30:00Z,30.2583,-88.2131,22.04,1111122 
DISL,ioos:station:DISL:KATA:1,2011-10-04T17:00:00Z,30.2583,-88.2131,21.97,1111122 
DISL,ioos:station:DISL:KATA:1,2011-10-04T17:30:00Z,30.2583,-88.2131,22.79,1111122 
DISL,ioos:station:DISL:KATA:1,2011-10-04T18:00:00Z,30.2583,-88.2131,23.64,1111122 
DISL,ioos:station:DISL:KATA:1,2011-10-04T18:30:00Z,30.2583,-88.2131,24.21,1111122 
DISL,ioos:station:DISL:KATA:1,2011-10-04T19:00:00Z,30.2583,-88.2131,23.46,1111122 
DISL,ioos:station:DISL:KATA:1,2011-10-04T19:30:00Z,30.2583,-88.2131,22.81,1111122 
DISL,ioos:station:DISL:KATA:1,2011-10-04T20:00:00Z,30.2583,-88.2131,23.09,1111122 
DISL,ioos:station:DISL:KATA:1,2011-10-04T20:30:00Z,30.2583,-88.2131,23.46,1111122 
DISL,ioos:station:DISL:KATA:1,2011-10-04T21:00:00Z,30.2583,-88.2131,24.48,1111122 
DISL,ioos:station:DISL:KATA:1,2011-10-04T21:30:00Z,30.2583,-88.2131,23.96,1111122 
DISL,ioos:station:DISL:KATA:1,2011-10-04T22:00:00Z,30.2583,-88.2131,25.83,1111122 
DISL,ioos:station:DISL:KATA:1,2011-10-04T22:30:00Z,30.2583,-88.2131,25.51,1111122 
DISL,ioos:station:DISL:KATA:1,2011-10-04T23:00:00Z,30.2583,-88.2131,25.95,1111122 
DISL,ioos:station:DISL:KATA:1,2011-10-04T23:30:00Z,30.2583,-88.2131,23.78,1111122 
DISL,ioos:station:DISL:KATA:1,2011-10-05T00:00:00Z,30.2583,-88.2131,23.59,1111122 
DISL,ioos:station:DISL:KATA:1,2011-10-05T00:30:00Z,30.2583,-88.2131,23.06,1111122 
DISL,ioos:station:DISL:KATA:1,2011-10-05T01:00:00Z,30.2583,-88.2131,22.96,1111122 
DISL,ioos:station:DISL:KATA:1,2011-10-05T01:30:00Z,30.2583,-88.2131,23.07,1111122 
DISL,ioos:station:DISL:KATA:1,2011-10-05T02:00:00Z,30.2583,-88.2131,22.83,1111122 
DISL,ioos:station:DISL:KATA:1,2011-10-05T02:30:00Z,30.2583,-88.2131,22.56,1111122 
DISL,ioos:station:DISL:KATA:1,2011-10-05T03:00:00Z,30.2583,-88.2131,22.36,1111122 
DISL,ioos:station:DISL:KATA:1,2011-10-05T03:30:00Z,30.2583,-88.2131,21.75,1111122 
DISL,ioos:station:DISL:KATA:1,2011-10-05T04:00:00Z,30.2583,-88.2131,21.42,1111122 
DISL,ioos:station:DISL:KATA:1,2011-10-05T04:30:00Z,30.2583,-88.2131,21.35,1111122 
DISL,ioos:station:DISL:KATA:1,2011-10-05T05:00:00Z,30.2583,-88.2131,20.98,1111122 
DISL,ioos:station:DISL:KATA:1,2011-10-05T05:30:00Z,30.2583,-88.2131,20.91,1111122 
DISL,ioos:station:DISL:KATA:1,2011-10-05T06:00:00Z,30.2583,-88.2131,20.75,1111122 
DISL,ioos:station:DISL:KATA:1,2011-10-05T06:30:00Z,30.2583,-88.2131,20.41,1111122 
DISL,ioos:station:DISL:KATA:1,2011-10-05T07:00:00Z,30.2583,-88.2131,20.27,1111122 
DISL,ioos:station:DISL:KATA:1,2011-10-05T07:30:00Z,30.2583,-88.2131,19.39,1111122 
DISL,ioos:station:DISL:KATA:1,2011-10-05T08:00:00Z,30.2583,-88.2131,19.12,1111122 
DISL,ioos:station:DISL:KATA:1,2011-10-05T08:30:00Z,30.2583,-88.2131,19.46,1111122 
DISL,ioos:station:DISL:KATA:1,2011-10-05T09:00:00Z,30.2583,-88.2131,19.22,1111122 
DISL,ioos:station:DISL:KATA:1,2011-10-05T09:30:00Z,30.2583,-88.2131,19.12,1111122 
DISL,ioos:station:DISL:KATA:1,2011-10-05T10:00:00Z,30.2583,-88.2131,18.69,1111122 
DISL,ioos:station:DISL:KATA:1,2011-10-05T10:30:00Z,30.2583,-88.2131,18.62,1111122 
DISL,ioos:station:DISL:KATA:1,2011-10-05T11:00:00Z,30.2583,-88.2131,18.86,1111122 
DISL,ioos:station:DISL:KATA:1,2011-10-05T11:30:00Z,30.2583,-88.2131,18.38,1111122 
DISL,ioos:station:DISL:KATA:1,2011-10-05T12:00:00Z,30.2583,-88.2131,18.35,1111122 
DISL,ioos:station:DISL:KATA:1,2011-10-05T12:30:00Z,30.2583,-88.2131,20.05,1111122 
DISL,ioos:station:DISL:KATA:1,2011-10-05T13:00:00Z,30.2583,-88.2131,21.16,1111122 
DISL,ioos:station:DISL:KATA:1,2011-10-05T13:30:00Z,30.2583,-88.2131,21.11,1111122 
DISL,ioos:station:DISL:KATA:1,2011-10-05T14:00:00Z,30.2583,-88.2131,21.45,1111122 
DISL,ioos:station:DISL:KATA:1,2011-10-05T14:30:00Z,30.2583,-88.2131,21.44,1111122 
DISL,ioos:station:DISL:KATA:1,2011-10-05T15:00:00Z,30.2583,-88.2131,21.37,1111122 
DISL,ioos:station:DISL:KATA:1,2011-10-05T15:30:00Z,30.2583,-88.2131,21.77,1111122 
DISL,ioos:station:DISL:KATA:1,2011-10-05T16:00:00Z,30.2583,-88.2131,22.14,1111122 
DISL,ioos:station:DISL:KATA:1,2011-10-05T16:30:00Z,30.2583,-88.2131,22.38,1111122 
DISL,ioos:station:DISL:KATA:1,2011-10-05T17:00:00Z,30.2583,-88.2131,23.03,1111122 
DISL,ioos:station:DISL:KATA:1,2011-10-05T17:30:00Z,30.2583,-88.2131,23.4,1111122 
DISL,ioos:station:DISL:KATA:1,2011-10-05T18:00:00Z,30.2583,-88.2131,24.2,1111122 
DISL,ioos:station:DISL:KATA:1,2011-10-05T18:30:00Z,30.2583,-88.2131,24.54,1111122 
DISL,ioos:station:DISL:KATA:1,2011-10-05T19:00:00Z,30.2583,-88.2131,24.71,1111122 
DISL,ioos:station:DISL:KATA:1,2011-10-05T19:30:00Z,30.2583,-88.2131,24.98,1111122 
DISL,ioos:station:DISL:KATA:1,2011-10-05T20:00:00Z,30.2583,-88.2131,24.46,1111122 
DISL,ioos:station:DISL:KATA:1,2011-10-05T20:30:00Z,30.2583,-88.2131,24.4,1111122 
DISL,ioos:station:DISL:KATA:1,2011-10-05T21:00:00Z,30.2583,-88.2131,24.81,1111122 
DISL,ioos:station:DISL:KATA:1,2011-10-05T21:30:00Z,30.2583,-88.2131,24.74,1111122 
DISL,ioos:station:DISL:KATA:1,2011-10-05T22:00:00Z,30.2583,-88.2131,24.64,1111122 
DISL,ioos:station:DISL:KATA:1,2011-10-05T22:30:00Z,30.2583,-88.2131,24.74,1111122 
DISL,ioos:station:DISL:KATA:1,2011-10-05T23:00:00Z,30.2583,-88.2131,24.67,1111122 
DISL,ioos:station:DISL:KATA:1,2011-10-05T23:30:00Z,30.2583,-88.2131,24.41,1111122 
DISL,ioos:station:DISL:KATA:1,2011-10-06T00:00:00Z,30.2583,-88.2131,24.54,1111122 
DISL,ioos:station:DISL:KATA:1,2011-10-06T00:30:00Z,30.2583,-88.2131,24.42,1111122 
DISL,ioos:station:DISL:KATA:1,2011-10-06T01:00:00Z,30.2583,-88.2131,24.38,1111122 
DISL,ioos:station:DISL:KATA:1,2011-10-06T01:30:00Z,30.2583,-88.2131,24.48,1111122 
DISL,ioos:station:DISL:KATA:1,2011-10-06T02:00:00Z,30.2583,-88.2131,24.42,1111122 
DISL,ioos:station:DISL:KATA:1,2011-10-06T02:30:00Z,30.2583,-88.2131,23.5,1111122 
DISL,ioos:station:DISL:KATA:1,2011-10-06T03:00:00Z,30.2583,-88.2131,23.03,1111122 
DISL,ioos:station:DISL:KATA:1,2011-10-06T03:30:00Z,30.2583,-88.2131,22.55,1111122 
DISL,ioos:station:DISL:KATA:1,2011-10-06T04:00:00Z,30.2583,-88.2131,22.05,1111122 
DISL,ioos:station:DISL:KATA:1,2011-10-06T04:30:00Z,30.2583,-88.2131,22.13,1111122 
DISL,ioos:station:DISL:KATA:1,2011-10-06T05:00:00Z,30.2583,-88.2131,22.13,1111122 
DISL,ioos:station:DISL:KATA:1,2011-10-06T05:30:00Z,30.2583,-88.2131,22.13,1111122 
DISL,ioos:station:DISL:KATA:1,2011-10-06T06:00:00Z,30.2583,-88.2131,22.0,1111122 
DISL,ioos:station:DISL:KATA:1,2011-10-06T06:30:00Z,30.2583,-88.2131,22.03,1111122 
DISL,ioos:station:DISL:KATA:1,2011-10-06T07:00:00Z,30.2583,-88.2131,22.13,1111122 
DISL,ioos:station:DISL:KATA:1,2011-10-06T07:30:00Z,30.2583,-88.2131,22.06,1111122 
DISL,ioos:station:DISL:KATA:1,2011-10-06T08:00:00Z,30.2583,-88.2131,22.2,1111122 
DISL,ioos:station:DISL:KATA:1,2011-10-06T08:30:00Z,30.2583,-88.2131,21.89,1111122 
DISL,ioos:station:DISL:KATA:1,2011-10-06T09:00:00Z,30.2583,-88.2131,21.11,1111122 
DISL,ioos:station:DISL:KATA:1,2011-10-06T09:30:00Z,30.2583,-88.2131,21.11,1111122 
DISL,ioos:station:DISL:KATA:1,2011-10-06T10:00:00Z,30.2583,-88.2131,20.3,1111122 
DISL,ioos:station:DISL:KATA:1,2011-10-06T10:30:00Z,30.2583,-88.2131,20.27,1111122 
DISL,ioos:station:DISL:KATA:1,2011-10-06T11:00:00Z,30.2583,-88.2131,19.93,1111122 
DISL,ioos:station:DISL:KATA:1,2011-10-06T11:30:00Z,30.2583,-88.2131,20.17,1111122 
DISL,ioos:station:DISL:KATA:1,2011-10-06T12:00:00Z,30.2583,-88.2131,20.04,1111122 
DISL,ioos:station:DISL:KATA:1,2011-10-06T12:30:00Z,30.2583,-88.2131,20.41,1111122 
DISL,ioos:station:DISL:KATA:1,2011-10-06T13:00:00Z,30.2583,-88.2131,22.07,1111122 
DISL,ioos:station:DISL:KATA:1,2011-10-06T13:30:00Z,30.2583,-88.2131,22.7,1111122 
DISL,ioos:station:DISL:KATA:1,2011-10-06T14:00:00Z,30.2583,-88.2131,22.72,1111122 
DISL,ioos:station:DISL:KATA:1,2011-10-06T14:30:00Z,30.2583,-88.2131,22.45,1111122 
DISL,ioos:station:DISL:KATA:1,2011-10-06T15:00:00Z,30.2583,-88.2131,22.82,1111122 
DISL,ioos:station:DISL:KATA:1,2011-10-06T15:30:00Z,30.2583,-88.2131,23.26,1111122 
DISL,ioos:station:DISL:KATA:1,2011-10-06T16:00:00Z,30.2583,-88.2131,23.57,1111122 
DISL,ioos:station:DISL:KATA:1,2011-10-06T16:30:00Z,30.2583,-88.2131,23.93,1111122 
DISL,ioos:station:DISL:KATA:1,2011-10-06T17:00:00Z,30.2583,-88.2131,24.74,1111122 
DISL,ioos:station:DISL:KATA:1,2011-10-06T17:30:00Z,30.2583,-88.2131,24.77,1111122 
DISL,ioos:station:DISL:KATA:1,2011-10-06T18:00:00Z,30.2583,-88.2131,24.94,1111122 
DISL,ioos:station:DISL:KATA:1,2011-10-06T18:30:00Z,30.2583,-88.2131,24.97,1111122 
DISL,ioos:station:DISL:KATA:1,2011-10-06T19:00:00Z,30.2583,-88.2131,24.87,1111122 
DISL,ioos:station:DISL:KATA:1,2011-10-06T19:30:00Z,30.2583,-88.2131,24.91,1111122 
DISL,ioos:station:DISL:KATA:1,2011-10-06T20:00:00Z,30.2583,-88.2131,25.46,1111122 
DISL,ioos:station:DISL:KATA:1,2011-10-06T20:30:00Z,30.2583,-88.2131,24.57,1111122 
DISL,ioos:station:DISL:KATA:1,2011-10-06T21:00:00Z,30.2583,-88.2131,24.74,1111122 
DISL,ioos:station:DISL:KATA:1,2011-10-06T21:30:00Z,30.2583,-88.2131,24.64,1111122 
DISL,ioos:station:DISL:KATA:1,2011-10-06T22:00:00Z,30.2583,-88.2131,24.68,1111122 
DISL,ioos:station:DISL:KATA:1,2011-10-06T22:30:00Z,30.2583,-88.2131,24.81,1111122 
DISL,ioos:station:DISL:KATA:1,2011-10-06T23:00:00Z,30.2583,-88.2131,24.54,1111122 
DISL,ioos:station:DISL:KATA:1,2011-10-06T23:30:00Z,30.2583,-88.2131,24.61,1111122 